DW7733 Weather Reports


Display with metric or nautical units.
time (UTC)temp
F
wind
direction
speed
MPH
gust
MPH
rain 1hr
in
rain 24hr
in
rain mn
in
humidity
%
barometer
mb
20260905184601 70 335 9.0 11.0 0.00 0.00 0.00 84 1015.0
20260905183107 70 328 8.0 11.0 0.00 0.00 0.00 86 1015.1
20260905181558 70 325 7.0 11.0 0.00 0.00 0.00 86 1015.0
20260905180052 70 332 8.0 10.0 0.00 0.00 0.00 85 1015.0
20260905174551 69 332 8.0 11.0 0.00 0.00 0.00 87 1014.7
20260905173049 69 328 8.0 12.0 0.00 0.00 0.00 85 1014.9
20260905171547 70 323 6.0 9.0 0.00 0.00 0.00 85 1015.0
20260905170046 70 335 6.0 8.0 0.00 0.00 0.00 83 1014.9
20260905164544 69 325 7.0 8.0 0.00 0.02 0.00 84 1014.9
20260905163043 70 326 6.0 8.0 0.00 0.02 0.00 84 1014.9
20260905161542 70 316 4.0 7.0 0.00 0.02 0.00 82 1015.0
20260905160041 70 302 4.0 7.0 0.00 0.02 0.00 82 1014.9
20260905154542 69 317 4.0 6.0 0.00 0.02 0.00 83 1014.9
20260905153052 69 330 3.0 5.0 0.00 0.02 0.00 82 1014.9
20260905151542 70 335 4.0 6.0 0.00 0.02 0.00 81 1014.8
20260905150038 70 20 6.0 8.0 0.00 0.02 0.00 73 1014.7
20260905144537 70 57 4.0 8.0 0.00 0.02 0.00 75 1014.7
20260905143037 70 45 0.0 5.0 0.00 0.02 0.00 77 1014.6
20260905141532 69 47 3.0 6.0 0.00 0.02 0.00 77 1014.5
20260905140031 69 58 4.0 6.0 0.00 0.02 0.00 78 1014.5
20260905134526 68 43 0.0 2.0 0.00 0.04 0.00 83 1014.7
20260905133030 66 68 0.0 2.0 0.00 0.04 0.00 86 1014.7
20260905131531 64 32 1.0 3.0 0.00 0.04 0.00 90 1014.7
20260905130034 63 142 0.0 2.0 0.00 0.04 0.00 92 1014.7
20260905124521 62 43 0.0 4.0 0.00 0.04 0.00 93 1014.7
20260905123020 61 136 0.0 1.0 0.00 0.04 0.00 93 1014.7
20260905121519 60 134 0.0 0.0 0.00 0.04 0.00 93 1014.7
20260905120018 60 134 0.0 0.0 0.00 0.04 0.00 94 1014.6
20260905114518 60 134 0.0 0.0 0.00 0.04 0.00 94 1014.7
20260905113016 60 134 0.0 0.0 0.00 0.04 0.00 94 1014.5
20260905111513 61 134 0.0 0.0 0.00 0.04 0.00 93 1014.4
20260905110011 61 134 0.0 0.0 0.00 0.04 0.00 93 1014.1
20260905104506 62 134 0.0 0.0 0.00 0.04 0.00 92 1014.1
20260905103007 63 134 0.0 1.0 0.00 0.04 0.00 90 1013.9
20260905101503 63 72 0.0 5.0 0.00 0.04 0.00 89 1013.9
20260905100002 63 46 2.0 3.0 0.00 0.04 0.00 90 1013.7
20260905094601 63 136 0.0 0.0 0.00 0.04 0.00 90 1013.9
20260905093100 64 136 0.0 2.0 0.00 0.04 0.00 90 1013.7
20260905091603 64 236 0.0 2.0 0.00 0.04 0.00 90 1013.6
20260905090059 64 235 0.0 0.0 0.00 0.04 0.00 91 1013.8
20260905084615 64 166 0.0 1.0 0.00 0.04 0.00 90 1013.9
20260905083055 64 173 0.0 0.0 0.00 0.04 0.00 90 1013.6
20260905081555 64 67 0.0 0.0 0.00 0.04 0.00 90 1013.6
20260905080155 64 67 0.0 0.0 0.00 0.04 0.00 90 1013.3
20260905074558 64 65 0.0 2.0 0.00 0.04 0.00 90 1013.2
20260905073102 64 56 0.0 2.0 0.00 0.04 0.00 92 1013.1
20260905071552 64 152 0.0 0.0 0.00 0.04 0.00 93 1013.0
20260905070051 64 152 0.0 1.0 0.00 0.04 0.00 93 1013.3
20260905064550 64 152 0.0 2.0 0.00 0.04 0.00 94 1013.3
20260905063048 64 142 0.0 0.0 0.00 0.04 0.00 94 1013.3
20260905061548 64 142 0.0 0.0 0.00 0.04 0.00 94 1013.4
20260905060047 64 142 0.0 1.0 0.00 0.04 0.00 94 1013.3
20260905054548 63 142 0.0 0.0 0.00 0.04 0.00 94 1013.4
20260905053110 63 142 0.0 0.0 0.00 0.04 0.00 94 1013.4
20260905051543 64 142 0.0 1.0 0.00 0.04 0.00 94 1013.5
20260905050041 64 142 0.0 1.0 0.00 0.04 0.00 94 1013.6
20260905044538 65 142 0.0 0.0 0.00 0.04 0.00 93 1013.7
20260905043036 65 143 0.0 1.0 0.00 0.04 0.00 92 1013.7
20260905041537 66 142 0.0 1.0 0.00 0.04 0.00 91 1013.7
20260905040031 66 121 0.0 1.0 0.00 0.04 0.00 89 1013.7
20260905034530 67 138 0.0 5.0 0.00 0.04 0.04 88 1013.8
20260905033039 67 74 1.0 3.0 0.00 0.04 0.04 88 1013.9
20260905031529 68 65 0.0 0.0 0.00 0.04 0.04 87 1013.9
20260905030131 69 88 0.0 3.0 0.00 0.04 0.04 87 1013.9
20260905024527 70 68 0.0 4.0 0.00 0.04 0.04 87 1014.1
20260905023026 70 37 6.0 7.0 0.00 0.04 0.04 87 1014.2
20260905021531 69 75 1.0 3.0 0.00 0.04 0.04 87 1014.2
20260905020029 69 50 0.0 2.0 0.00 0.04 0.04 88 1014.0
20260905014526 69 132 0.0 4.0 0.00 0.04 0.04 88 1013.9
20260905013024 68 58 2.0 4.0 0.00 0.04 0.04 89 1014.0
20260905011523 67 131 0.0 1.0 0.00 0.04 0.04 88 1013.9
20260905010022 67 132 0.0 0.0 0.00 0.04 0.04 87 1013.9
20260905004524 67 129 0.0 1.0 0.00 0.04 0.04 87 1013.6
20260905003021 67 129 0.0 1.0 0.00 0.04 0.04 88 1013.4
20260905001521 67 128 0.0 1.0 0.00 0.04 0.04 87 1013.3
20260905000020 68 129 0.0 0.0 0.00 0.04 0.04 86 1013.4
20260904234519 69 128 0.0 0.0 0.00 0.04 0.04 88 1013.3
20260904233019 69 129 0.0 0.0 0.00 0.04 0.04 86 1013.4
20260904231522 70 129 0.0 0.0 0.00 0.04 0.04 81 1013.5
20260904230021 70 128 0.0 0.0 0.00 0.04 0.04 81 1013.2
20260904224517 71 128 0.0 0.0 0.00 0.05 0.04 82 1013.2
20260904223023 72 128 0.0 1.0 0.00 0.05 0.04 81 1013.1
20260904221516 72 112 0.0 1.0 0.00 0.05 0.04 84 1012.8
20260904220017 72 63 0.0 3.0 0.00 0.05 0.04 84 1012.7
20260904214518 72 62 2.0 8.0 0.00 0.12 0.04 85 1012.5
20260904213025 72 56 1.0 7.0 0.00 0.12 0.04 86 1012.4
20260904211518 72 133 1.0 8.0 0.00 0.12 0.04 86 1012.3
20260904210023 72 48 6.0 12.0 0.00 0.12 0.04 86 1012.4
20260904204519 72 38 8.0 9.0 0.00 0.24 0.04 87 1012.6
20260904203010 72 45 6.0 9.0 0.00 0.24 0.04 87 1012.6
20260904201509 73 30 6.0 9.0 0.00 0.24 0.04 86 1012.7
20260904200007 73 47 4.0 10.0 0.00 0.24 0.04 87 1012.7
20260904194505 73 44 3.0 6.0 0.00 0.24 0.04 89 1012.6
20260904193004 73 60 4.0 6.0 0.00 0.24 0.04 89 1012.8
20260904191601 73 27 3.0 6.0 0.00 0.24 0.04 89 1013.0